Regional Weather Roundup
Issued by NWS

Home | Current Version | Previous Version | Text Only | Print | Product List | Glossary Off
Versions: 1 2 3 4 5 6 7 8 9 10 11 12 13 14 15 16 17 18 19 20 21 22 23 24 25 26 27 28 29 30 31 32 33 34 35 36 37 38 39 40 41 42 43 44 45 46 47 48 49 50

191
ASUS43 KMKX 270900
RWRWI

WISCONSIN REGIONAL WEATHER ROUNDUP
NATIONAL WEATHER SERVICE MILWAUKEE/SULLIVAN WI
400 AM CDT THU JUL 27 2017

NOTE: "FAIR" INDICATES FEW OR NO CLOUDS BELOW 12,000 FEET WITH NO
SIGNIFICANT WEATHER AND/OR OBSTRUCTIONS TO VISIBILITY.

WIZ001-002-006>008-014>016-023>028-271000-
NORTHWEST WISCONSIN

CITY           SKY/WX    TMP DP  RH WIND       PRES   REMARKS
SUPERIOR ARPT  NOT AVBL
ASHLAND        CLEAR     56  56 100 W3        30.05R
HAYWARD        FOG       55  54  96 N3        30.06S VSB 3/4
SIREN          CLEAR     58  57  94 CALM      30.06S
CUMBERLAND     CLEAR     63  59  88 N7        30.05S
RICE LAKE        N/A     59  58  97 CALM      30.06R FOG
CHETEK         CLEAR     60  60 100 NW3       30.04S
LADYSMITH      CLEAR     59  58  97 CALM      30.05S FOG
EAU CLAIRE     FOG       61  60  97 CALM      30.01S VSB 1/2
MENOMONIE      CLEAR     63  62  97 CALM      30.03S
NEW RICHMOND   CLEAR     60  59  98 CALM      30.05R
OSCEOLA        PTCLDY    59  59 100 CALM      30.08R
$$

WIZ003>005-009-010-017-018-271000-
NORTH CENTRAL WISCONSIN

CITY           SKY/WX    TMP DP  RH WIND       PRES   REMARKS
MANITOWISH WTR FOG       53  53 100 CALM      30.05S VSB 3/4
ARBOR VITAE    CLEAR     57  56  96 CALM      30.04S
WOODRUFF       CLEAR     57  56  96 CALM      30.04S
RHINELANDER    CLEAR     54  54 100 CALM      30.05S
EAGLE RIVER    CLEAR     53  53 100 CALM      30.04S
LAND O LAKES   CLEAR     51  51 100 CALM      30.07R
PHILLIPS       PTCLDY    54  54 100 CALM      30.04S FOG
TOMAHAWK         N/A     51  50  97 CALM      30.04S
MEDFORD          N/A     56  56  99 CALM      30.03S FOG
MERRILL        FOG       54  54 100 CALM      30.03S VSB 3/4
$$

WIZ029-030-035-036-043>047-271000-
CENTRAL WISCONSIN

CITY           SKY/WX    TMP DP  RH WIND       PRES   REMARKS
WAUSAU         CLEAR     61  60  97 NW5       30.01R
MOSINEE        CLEAR     61  59  94 N7        30.02S
MARSHFIELD     CLEAR     63  57  81 N6        30.01R
STEVENS POINT  CLEAR     60  60 100 CALM      30.00S
WAUPACA        CLEAR     66  65  97 N5        29.98S
WAUTOMA        CLEAR     63  62  97 N5        29.98R
WISC RAPIDS    CLEAR     63  62  97 NE5       30.01R
CAMP DOUGLAS   CLEAR     61  61 100 NW5       29.98S FOG
$$

WIZ011>013-019>022-031-037>040-048>050-271000-
NORTHEAST WISCONSIN

CITY           SKY/WX    TMP DP  RH WIND       PRES   REMARKS
ANTIGO         CLEAR     53  53 100 CALM      30.03S
SHAWANO        CLEAR     65  61  89 CALM      29.99R
OCONTO         CLEAR     59  59  98 CALM      29.97R
STURGEON BAY     N/A     65  58  78 N3        29.98R
GREEN BAY      CLEAR     65  65 100 N7        29.97R
MANITOWOC      NOT AVBL
APPLETON       CLEAR     66  64  94 N9        29.96R
CLINTONVILLE   CLEAR    N/A N/A N/A N6        29.99R
OSHKOSH        CLEAR     69  67  93 N7        29.95S
$$

WIZ032>034-041-042-053>061-271000-
SOUTHWEST WISCONSIN

CITY           SKY/WX    TMP DP  RH WIND       PRES   REMARKS
LA CROSSE      CLEAR     68  66  93 N6        29.98S
SPARTA         FOG       60  60 100 CALM      30.00R VSB 1/4
VIROQUA        CLEAR     68  68 100 CALM      30.00S
BOSCOBEL       FOG       69  68  96 CALM      29.97R VSB 1/4
PRAIRIE DU CHI PTCLDY    72  70  93 CALM      29.96S
PLATTEVILLE    CLEAR     70  70 100 N8        29.96S
$$

WIZ056-057-062-063-064-067-068-271000-
SOUTH CENTRAL WISCONSIN

CITY           SKY/WX    TMP DP  RH WIND       PRES   REMARKS
REEDSBURG      FOG       66  66 100 NW5       29.97S VSB 1/2
BARABOO/DELLS  PTCLDY    67  66  96 CALM      29.97S
LONE ROCK      FOG       67  67 100 W3        29.96R VSB 1/4
MINERAL POINT  MOCLDY    70  70 100 N9        29.96S FOG
MADISON        CLOUDY    70  70 100 N6        29.94S FOG
MIDDLETON      CLEAR     71  71 100 N7        29.95S
WATERTOWN      FOG       66  66 100 CALM      29.93F VSB 1
MONROE         FOG       70  68  94 NE6       29.94S VSB 3/4
JANESVILLE     MOCLDY    72  72 100 N5        29.93S FOG
$$

WIZ051-052-058>065-066-070>072-271000-
SOUTHEAST WISCONSIN

CITY           SKY/WX    TMP DP  RH WIND       PRES   REMARKS
MILWAUKEE      CLOUDY    72  70  93 NE6       29.93S
WAUKESHA       CLOUDY    68  68 100 CALM      29.95S
MILWAUKEE/TIMM CLOUDY    70  66  88 E3        29.95R FOG
RACINE         MOCLDY    71  69  93 N7        29.94F FOG
KENOSHA        PTCLDY    71  68  90 N6        29.93S FOG
FOND DU LAC    FOG       65  63  93 CALM      29.95S VSB 1/4
SHEBOYGAN      CLEAR     65  65 100 N5        29.94S
WEST BEND      CLEAR     68  68 100 N6        29.94F FOG
JUNEAU         CLEAR     68  67  98 N3        29.96S FOG
$$

LSZ147-162-271000-
LAKE SUPERIOR

STATION/POSITION TIME  TEMP    WIND        PRES    WAVE
                       AIR SEA DIR/SP/G            HT/PER
                 (UTC) (F)     (DEG/KT/KT) (MB)    (FT/S)
W MID LAKE BUOY  0750   59 52  320/  6/  8 1016.2R   0
DEVILS ISLAND    0800   66     290/  7/  7 1016.8R
PORT WING        0830   60     150/  3/  5 1017.6R
SAXON HARBOR     0840   59     200/  4/  5 1016.6R
$$

LMZ867-665-643>646-271000-
LAKE MICHIGAN

STATION/POSITION TIME  TEMP    WIND        PRES    WAVE
                       AIR SEA DIR/SP/G            HT/PER
                 (UTC) (F)     (DEG/KT/KT) (MB)    (FT/S)
CHAMBERS ISLAND  0840   68     330/  7/  8 1014.2R
S GREEN BAY BUOY 0730   71 71   20/  8/ 10 1014.3F
N MID LAKE BUOY  0750   66 65  270/  2/  4 1015.0F   2/ 5
NORTHPORT PIER   0840   66     310/  4/  6 1014.6S
KEWAUNEE LAKESHO 0830   68      10/  3/  5 1013.6R
SHEBOYGAN LAKESH 0800   71     290/  5/  6 1013.3F
PORT WASHINGTON  0840   71     290/  1/  3 1014.2S
ATWATER BUOY     0709   70 68  350/  6/  6 1013.7F
MILWAUKEE LAKESH 0830   70      30/  2/  2   N/A
S MID LAKE BUOY  0750   72 70  240/  4/  4 1013.1S   1
KENOSHA   LAKESH 0800   73     360/  9/ 10 1013.2
$$

TC  - TEMPERATURE IN CELSIUS
VSB - VISIBILITY IN STATUTE MILES
WCI - WIND CHILL INDEX
HX  - HEAT INDEX





USA.gov is the U.S. government's official web portal to all federal, state and local government web resources and services.